Terminal Aerodrome Forecast
Issued by NWS

Home | Current Version | Previous Version | Text Only | Print | Product List | Glossary On
Versions: 1 2 3 4 5 6 7 8 9 10 11 12 13 14 15 16 17 18
000
FTUS43 KJKL 220900 AAA
TAFSME
TAF AMD
KSME 220936Z 2210/2306 03004KT P6SM FEW040
     FM221100 01003KT P6SM SCT015 BKN040
     FM221300 02003KT P6SM OVC025
     FM221600 03004KT P6SM SCT025 BKN035
     FM230300 00000KT P6SM BKN030=

USA.gov is the U.S. government's official web portal to all federal, state and local government web resources and services.